Location: *
(49.3500°N, 12.6000°E)
Time: 14:53:14
(UTC+00:00)

STARLINK-35 - Pass Details

Date: 18 October 2019
Orbit: 548 x 551 km, 53.0° (Epoch: 19 November)

Event Time Altitude Azimuth Distance (km) Brightness Sun altitude
Rises 17:00:21 0° 253° (WSW) 2,712 9.2 -8.2°
Reaches altitude 10° 17:02:35 10° 255° (WSW) 1,821 7.9 -8.6°
Maximum altitude 17:06:43 73° 340° (NNW) 577 3.8 -9.3°
Enters shadow 17:10:33 12° 66° (ENE) 1,699 5.5 -9.9°
